#timestamp,LO_Frequency,Hit,StdDev 
1540440015.6,286047000.6,N
1540440035.5,286046998.1,N
1540440055.3,286047000.7,N
1540440075.1,286046999.4,N
1540440095.9,286046999.1,N
1540440115.7,286046999.0,N
1540440135.6,286046999.0,N
1540440155.4,286047001.2,N
1540440175.2,286047002.8,N
1540440195.1,286047000.4,N
1540440196.0,286047000.4,N
1540440215.8,286047000.1,N
1540440235.6,286047000.6,N
1540440255.5,286047000.8,N
1540440275.3,286047000.2,N
1540440295.2,286046999.9,N
1540440315.9,286047000.8,N
1540440335.7,286047000.0,N
1540440355.6,286047002.8,N
1540440375.4,286046999.7,N
1540440395.2,286047001.7,N
1540440415.1,286047000.1,N
1540440416.0,286047000.1,N
1540440435.8,286046999.9,N
1540440455.7,286046999.7,N
1540440475.5,286047002.1,N
1540440495.3,286047002.6,N
1540440515.2,286047001.6,N
1540440535.9,286047004.0,Y
1540440555.7,286047002.3,P
1540440575.6,286047002.6,N
1540440595.4,286047001.6,N
1540440615.3,286047004.3,Y
1540440635.1,286047000.1,P
1540440636.0,286047000.1,N
1540440655.8,286046998.2,N
1540440675.7,286046999.3,N
1540440695.5,286046996.9,N
1540440715.3,286046999.3,N
1540440735.2,286046999.0,N
1540440755.0,286046997.3,N
1540440755.9,286046997.3,N
1540440775.8,286046998.4,N
1540440795.6,286046998.8,N
1540440815.4,286047000.5,N
1540440835.3,286047000.8,N
1540440855.1,286047000.1,N
1540440875.8,286047000.0,N
1540440895.7,286046999.9,N
1540440915.5,286046999.7,N
1540440935.4,286046999.8,N
1540440955.2,286047000.4,N
1540440975.0,286046998.2,N
1540440975.9,286046998.2,N
1540440995.8,286046998.2,N
1540441015.6,286047001.2,N
1540441035.4,286047000.9,N
1540441055.3,286047000.6,N
1540441075.1,286047000.2,N
1540441095.9,286047002.5,N
1540441115.7,286047002.7,N
1540441135.5,286046999.7,N
1540441155.4,286046999.8,N
1540441175.2,286047002.7,N
1540441195.0,286047000.1,N
1540441195.9,286047000.1,N
1540441215.8,286047001.0,N
1540441235.6,286047000.4,N
1540441255.5,286047000.1,N
1540441275.3,286047000.7,N
1540441295.1,286046998.3,N
1540441315.9,286046998.2,N
1540441335.7,286047001.2,N
1540441355.6,286046998.6,N
1540441375.4,286046999.3,N
1540441395.2,286047000.0,N
1540441415.1,286047001.1,N
1540441416.0,286047001.1,N
1540441435.8,286047002.8,N
1540441455.7,286047000.0,N
1540441475.5,286047000.1,N
1540441495.3,286046999.8,N
1540441515.2,286046998.2,N
1540441535.0,286046999.8,N
1540441535.9,286046999.8,N
1540441555.7,286047000.7,N
1540441575.6,286046999.8,N
1540441595.4,286047000.2,N
1540441615.3,286046998.6,N
1540441635.1,286046998.7,N
1540441636.0,286046998.7,N
1540441655.8,286046998.1,N
1540441675.7,286047000.8,N
1540441695.5,286046999.4,N
1540441715.3,286046998.3,N
1540441735.2,286047000.5,N
1540441755.0,286047000.7,N
1540441755.9,286047000.7,N
1540441775.8,286047001.2,N
1540441795.6,286046998.1,N
1540441815.4,286047000.9,N
1540441835.3,286047000.3,N
1540441855.1,286047002.3,N
1540441875.8,286047002.8,N
1540441895.7,286047002.4,N
1540441915.5,286047000.0,N
1540441935.4,286047000.7,N
1540441955.2,286047000.8,N
1540441975.0,286047000.5,N
1540441975.9,286047000.5,N
1540441995.8,286046999.8,N
1540442015.6,286047002.2,N
1540442035.4,286047001.5,N
1540442055.3,286047003.5,N
1540442075.1,286047001.8,N
1540442095.9,286047002.6,N
1540442115.7,286046999.8,N
1540442135.5,286047001.4,N
1540442155.4,286047001.5,N
1540442175.2,286047001.0,N
1540442195.0,286047000.6,N
1540442195.9,286047000.6,N
1540442215.8,286046998.6,N
1540442235.6,286047002.7,N
1540442255.5,286047002.1,N
1540442275.3,286047000.4,N
1540442295.1,286047000.0,N
1540442315.9,286046998.1,N
1540442335.7,286046998.5,N
1540442355.5,286047000.0,N
1540442375.4,286046998.4,N
1540442395.2,286046999.2,N
1540442415.1,286046997.3,N
1540442416.0,286046997.3,N
1540442435.8,286046996.8,N
1540442455.6,286047000.8,N
1540442475.5,286046998.3,N
1540442495.3,286046999.1,N
1540442515.1,286046999.5,N
1540442535.9,286046998.9,N
1540442555.7,286046998.7,N
1540442575.6,286046998.9,N
1540442595.4,286046999.3,N
1540442615.2,286046997.1,N
1540442635.1,286046997.1,N
1540442636.0,286046997.1,N
1540442655.8,286046997.7,N
1540442675.6,286046998.8,N
1540442695.5,286046998.6,N
1540442715.3,286046999.4,N
1540442735.2,286047000.6,N
1540442755.9,286046996.5,N
1540442775.7,286046996.8,N
1540442795.6,286046999.5,N
1540442815.4,286047000.6,N
1540442835.2,286047001.2,N
1540442855.1,286046999.4,N
1540442856.0,286046999.4,N
1540442875.8,286046997.5,N
1540442895.7,286046997.8,N
1540442915.5,286046996.6,N
1540442935.3,286046996.5,N
1540442955.2,286046998.7,N
1540442975.0,286046998.3,N
1540442975.9,286046998.3,N
1540442995.7,286046997.1,N
1540443015.6,286046997.0,N
1540443035.4,286046997.0,N
1540443055.3,286046998.0,N
1540443075.1,286046996.8,N
1540443076.0,286046996.8,N
1540443095.8,286046997.6,N
1540443115.7,286046997.5,N
1540443135.5,286046997.9,N
1540443155.3,286046997.2,N
1540443175.2,286046996.9,N
1540443195.0,286046998.2,N
1540443195.9,286046998.2,N
1540443215.8,286046996.9,N
1540443235.6,286046997.4,N
1540443255.4,286046996.1,Y
1540443275.3,286046996.6,P
1540443295.1,286046997.9,P
1540443315.8,286046997.5,P
1540443335.7,286046997.0,Y
1540443355.5,286047002.7,P
1540443375.4,286047004.4,N
1540443395.2,286047002.3,N
1540443415.0,286047002.6,N
1540443415.9,286047002.6,N
1540443435.8,286047001.8,N
1540443455.6,286047002.2,N
1540443475.4,286047002.2,N
1540443495.3,286047001.6,N
1540443515.1,286047002.7,N
1540443535.9,286047002.4,N
1540443555.7,286047004.4,N
1540443575.5,286047001.9,N
1540443595.4,286047002.2,N
